This is the latest recevied weather packets stored in our database for station/object KC4JIR. If no packets are shown the sender has not sent any weather packets the latest 10 day(s).
| Time | Temp. | Humidity | Pressure | Rain* | Wind** | Luminosity | Snow |
|---|---|---|---|---|---|---|---|
| 1788295689 | 36.11° C | 52% | 1014.3 hPa | 0 mm | - | 444 W/m² | - |
| 1788295386 | 36.11° C | 53% | 1014.3 hPa | 0 mm | - | 451 W/m² | - |
| 1788295085 | 36.67° C | 54% | 1014.3 hPa | 0 mm | - | 477 W/m² | - |
| 1788294780 | 36.67° C | 51% | 1014.7 hPa | 0 mm | - | 490 W/m² | - |
| 1788294480 | 36.11° C | 50% | 1014.6 hPa | 0 mm | - | 528 W/m² | - |
| 1788294175 | 36.11° C | 50% | 1014.6 hPa | 0 mm | - | 528 W/m² | - |
| 1788293871 | 36.11° C | 50% | 1014.8 hPa | 0 mm | - | 528 W/m² | - |
| 1788293582 | 35.56° C | 54% | 1014.7 hPa | 0 mm | - | 542 W/m² | - |
| 1788293264 | 36.11° C | 52% | 1014.8 hPa | 0 mm | - | 563 W/m² | - |
| 1788292960 | 35.56° C | 53% | 1014.9 hPa | 0 mm | - | 555 W/m² | - |
| 1788292658 | 35° C | 52% | 1014.9 hPa | 0 mm | - | 565 W/m² | - |
| 1788292352 | 35° C | 51% | 1014.7 hPa | 0 mm | - | 550 W/m² | - |
| 1788292048 | 35° C | 51% | 1014.9 hPa | 0 mm | - | 559 W/m² | - |
| 1788291742 | 35.56° C | 51% | 1015.2 hPa | 0 mm | - | 576 W/m² | - |
| 1788291438 | 35.56° C | 53% | 1015.2 hPa | 0 mm | - | 590 W/m² | - |
| 1788291132 | 35.56° C | 48% | 1015.3 hPa | 0 mm | - | 594 W/m² | - |
| 1788290827 | 35° C | 50% | 1015.1 hPa | 0 mm | - | 609 W/m² | - |
| 1788290522 | 34.44° C | 53% | 1015.4 hPa | 0 mm | - | 642 W/m² | - |
| 1788290218 | 35° C | 52% | 1015.3 hPa | 0 mm | - | 639 W/m² | - |
| 1788289914 | 35° C | 50% | 1015.6 hPa | 0 mm | - | 612 W/m² | - |
| 1788289610 | 35° C | 57% | 1015.5 hPa | 0 mm | - | 556 W/m² | - |
| 1788289309 | 34.44° C | 52% | 1015.6 hPa | 0 mm | - | 554 W/m² | - |
| 1788289008 | 35° C | 53% | 1015.5 hPa | 0 mm | - | 638 W/m² | - |
| 1788288705 | 35° C | 51% | 1015.7 hPa | 0 mm | - | 686 W/m² | - |
| 1788288401 | 34.44° C | 51% | 1015.8 hPa | 0 mm | - | 685 W/m² | - |
* Rain latest hour (hover to see other rain measurements)
** Current wind speed in m/s (hover to see current wind gust speed)